+ View the NASA Portal
+ Center for Near-Earth Object Studies
IMPORTANT:
The SSD Announcement email list is now available. Major changes are coming in the near future, including possible hostname and/or URL changes. To be notified of such changes, subscribe to this email list.
Please visit
this page
for more details.
Don't show this message again
JPL Small-Body Database Browser
Search:
[
help
]
226327 (2003 EE34)
Classification:
Main-belt Asteroid
SPK-ID:
2226327
[
Ephemeris
|
Orbit Diagram
|
Orbital Elements
|
Mission Design
|
Physical Parameters
|
Discovery Circumstances
|
Close-Approach Data
]
[ show orbit diagram ]
Orbital Elements at Epoch 2458600.5 (2019-Apr-27.0) TDB
Reference:
JPL 12
(heliocentric ecliptic J2000)
Element
Value
Uncertainty (1-sigma)
Units
e
.2202234079609495
4.96e-08
a
2.353618334298593
1.9918e-08
au
q
1.835296483679983
1.1917e-07
au
i
4.845643245410936
6.1247e-06
deg
node
269.540609051879
8.3785e-05
deg
peri
216.6668747870405
8.6232e-05
deg
M
195.0008396912903
2.4e-05
deg
t
p
2459204.979696081118
(2020-Dec-21.47969608)
9.3804e-05
TDB
period
1318.87150323707
3.61
1.6742e-05
4.584e-08
d
yr
n
.2729606327200241
3.465e-09
deg/d
Q
2.871940184917202
2.4304e-08
au
Orbit Determination Parameters
# obs. used (total)
212
data-arc span
6087 days (16.67 yr)
first obs. used
2003-02-01
last obs. used
2019-10-02
planetary ephem.
DE431
SB-pert. ephem.
SB431-N16
condition code
0
norm. resid. RMS
.62093
source
ORB
producer
Otto Matic
solution date
2019-Nov-08 00:51:38
Additional Information
Earth MOID
= .853748 au
Jupiter MOID
= 2.21786 au
T_jup
= 3.518
[ show covariance matrix ]
[
Ephemeris
|
Orbit Diagram
|
Orbital Elements
|
Mission Design
|
Physical Parameters
|
Discovery Circumstances
|
Close-Approach Data
]
Physical Parameter Table
Parameter
Symbol
Value
Units
Sigma
Reference
Notes
absolute magnitude
H
17.0
n/a
MPO297325
226327 (2003 EE34)
Discovered 2003-Mar-07 by LINEAR at Socorro
Reference:
20091202/Numbers.arc
Last Updated:
2009-12-04
[ show close-approach data ]
[
Ephemeris
|
Orbit Diagram
|
Orbital Elements
|
Mission Design
|
Physical Parameters
|
Discovery Circumstances
|
Close-Approach Data
]
2019-Dec-06 10:53 UT
(server date/time)
Site Manager:
Ryan S. Park
Webmaster
:
Alan B. Chamberlin